sat.trackr.live / text

‹ back to catalog

YINHE-1

NORAD 45024 · 2020-004A

PAYLOAD ACTIVE UNKNOWN

§ Identity

Operator
Country
PRC
Launch date
2020-01-16
Launch site
JSC
Launch vehicle
Mass (kg)
RCS (m²)

External: N2YO · Heavens-Above · Gunter

§ Orbital elements

Epoch: 2026-09-20T04:24:27.199296Z

Period
97.35 min
Inclination
86.3888°
Eccentricity
0.0015021
Mean motion
14.79220808 rev/d
Perigee alt
621.3 km
Apogee alt
642.3 km
Semi-major
7,009.9 km
B*
6.6600e-5
RAAN
72.8035°
Arg perigee
35.6023°
Mean anomaly
324.6196°
Rev number
35,996

§ Raw data

YINHE-11 45024U 20004A   26263.18364814  .00000522  00000+0  66600-4 0  99952 45024  86.3888  72.8035 0015021  35.6023 324.6196 14.79220808359965

JSON: /api/v1/satellites/45024 · /tle

For live sub-satellite position, see the globe view (requires WebGL).

§ Visibility from observer

Set your observer location to see the next 7 days of passes ≥ 10°. The values pass through the URL so the page stays shareable.

No JS? Fill the form by hand. The geolocation button needs JavaScript.